Vertical_Velocity
-1 2 0 2 2 5 7 0 -4 -2 2 -7 -6 2 8 0 3 -2 1 -2 2 -2 -5 -3 -3 0 1 1 3 -1 -2 -5 -9 7 9 -1 9 6 8 6 9 -0 4 4
-0 0 3 1 0 2 3 -1 2 11 3 -10 -3 1 4 -4 6 -2 1 1 -1 -0 -2 -7 -5 -1 -11 -1 -1 1 -8 5 -2 9 0 4 -1 4 6 6 7 6 5 5
0 1 0 2 3 2 1 2 -5 5 0 1 1 2 4 -1 4 0 -1 1 -4 -1 -1 -1 -3 0 -5 5 -3 0 1 -1 -2 -1 23 9 -2 2 -0 3 1 13 7 13
-1 -0 0 3 5 2 3 -6 -1 4 -3 -2 8 4 3 3 -1 5 -1 -5 -0 -2 -4 -4 -4 -1 3 5 4 -0 -1 2 -3 0 -7 -5 7 -2 5 2 1 5 8 8
2 1 -1 -0 -3 -2 -4 -3 9 11 7 5 -1 6 8 3 4 1 1 -2 -4 -6 -3 -1 -1 -0 -6 -4 -2 7 4 0 -1 -0 -0 1 -1 -1 2 4 2 5 3 -1
1 2 4 3 -1 -6 -2 13 4 4 2 5 -2 5 5 6 3 -3 1 -4 -3 -1 3 -10 -6 -7 -3 3 7 0 11 3 5 -2 1 -1 -8 4 6 4 -0 3 2 9
1 3 3 3 -2 -6 4 6 11 -6 5 2 8 5 3 6 2 3 0 -4 -2 4 1 -3 -4 -3 -0 -2 2 0 4 8 10 10 10 0 24 4 4 3 3 5 4 -2
2 4 5 1 1 -1 1 6 2 -1 4 3 1 3 4 0 -3 0 2 -0 2 -0 -3 -3 -3 1 -6 3 2 -0 7 4 -5 -14 -3 15 -1 -0 4 3 7 0 -3 -3
2 2 1 2 -0 1 1 4 4 -3 3 2 5 -2 -3 -1 0 1 4 -3 -2 1 6 -2 -8 -5 8 -5 -2 -0 -1 1 -1 -0 -1 -3 9 -9 4 4 12 -20 3 -0
3 3 2 3 -0 -1 1 5 3 -5 -2 2 2 5 5 3 1 0 -2 2 3 0 4 -1 -1 2 6 9 3 -1 -3 0 -8 7 -8 -4 4 -11 0 5 -3 1 4 -7
2 2 2 1 -2 -1 -1 8 -2 2 14 -2 4 -4 1 1 2 -2 2 6 5 -3 -9 -3 2 -0 5 -5 8 3 3 -1 0 5 -4 -4 -5 -4 -1 -5 -5 4 -0 -1
2 2 1 1 -0 -1 -1 0 4 4 -8 11 0 -0 -6 -5 2 -0 1 3 5 4 6 0 2 3 -0 4 -1 12 -5 5 7 -0 8 3 6 -1 5 5 2 0 -1 0
1 1 0 0 -0 -0 6 4 1 -5 -2 -1 -5 14 1 -1 5 1 -2 4 5 9 2 1 4 -1 6 3 2 10 -1 15 2 3 2 14 -3 -2 8 3 2 4 5 2
-0 -0 -0 -1 -0 -1 2 6 6 -1 2 1 5 4 12 0 -2 0 3 -4 -2 -1 3 2 -0 1 1 6 10 -2 5 -3 1 4 4 -3 8 -8 8 -2 0 2 3 -4
-0 -1 -1 -0 -1 1 2 1 6 1 8 18 4 1 7 1 7 4 -3 -0 5 4 -0 -2 1 -1 1 2 -0 2 6 -0 3 5 1 13 -9 -4 13 -5 -2 0 -2 -2
-0 -1 0 -1 -0 -0 -4 -6 -8 1 4 1 4 9 5 6 0 3 3 1 1 -1 -1 -1 1 -1 0 1 5 2 -9 5 0 -3 3 -4 -0 -14 16 -10 -4 -4 -5 -3
2 1 -2 -0 1 2 4 11 26 8 0 2 -0 -5 3 3 -1 -0 1 1 0 -0 -2 -4 -1 2 -1 1 7 -4 3 0 3 2 1 -5 -1 -5 3 -4 -1 -3 -3 -4
3 2 3 2 2 1 1 2 3 -0 5 1 -2 4 1 2 2 0 -1 -0 -2 -3 -0 5 2 -1 -2 -3 3 5 3 -1 -1 3 -3 -5 5 3 -0 -1 -0 -3 -0 -2
4 4 5 -0 2 3 8 12 11 5 1 2 4 4 2 -0 1 1 -0 -1 -3 -1 -1 2 -5 5 -6 15 2 1 -2 -2 2 -2 -5 -0 -4 -0 -0 -0 0 -1 -2 -3
-0 3 4 -2 2 4 2 -0 4 1 0 -1 -1 -1 0 -1 -1 -0 1 0 -4 -2 5 -3 -3 -5 0 4 4 1 -0 -1 0 -2 -2 -1 -2 3 1 -2 -3 -4 -3 -0
5 3 1 4 9 3 6 3 -3 -2 -2 -2 -1 0 0 -0 0 -1 -0 1 -0 1 3 -1 -6 -4 9 3 2 2 2 2 1 0 -1 -1 -2 -0 1 2 2 -0 -0 -2
0 12 9 0 -2 1 -1 -1 -1 -2 -2 3 0 -1 -1 1 -1 -2 -2 -0 -3 0 -1 -1 -12 16 4 0 -1 -2 -3 -0 2 1 -1 -1 -3 -3 -1 1 -1 -0 -1 -1
6 15 7 2 -3 -6 -4 -4 -2 -0 0 -1 -0 -2 -1 -1 -1 -2 -0 -3 -1 -2 -3 -12 2 10 2 -2 1 -1 -0 -1 -3 -2 -0 1 1 -1 -2 2 1 -1 -2 -1
3 -2 -6 -9 -4 -3 0 1 2 0 -3 -4 -3 -3 -2 2 1 1 2 -1 1 -0 -1 0 7 4 3 2 -1 0 1 0 0 0 -1 -1 -2 -2 -1 -1 -0 1 1 -0
-2 -5 -4 -1 2 0 2 -0 -2 -2 -1 0 -0 0 0 3 2 3 14 -2 -3 0 4 3 2 -1 -3 -1 -0 -0 1 1 0 -0 0 1 1 1 1 1 -0 1 1 1
-3 1 1 3 0 -0 -0 0 0 1 1 1 2 0 7 1 0 1 -2 -3 -1 4 2 1 1 0 -0 -1 0 1 1 0 1 1 2 1 1 0 -0 0 -0 -1 0 1
0 1 2 3 1 2 1 -0 -0 1 -1 -2 3 2 2 3 -1 -2 -2 1 -2 -0 -1 -2 -2 -2 0 2 1 1 1 1 1 0 0 0 1 0 -0 -0 -0 -0 0 1
Height
5496 5498 5499 5499 5502 5507 5513 5519 5529 5534 5537 5543 5548 5556 5562 5565 5569 5571 5576 5579 5582 5586 5589 5592 5595 5597 5599 5602 5604 5609 5609 5610 5614 5619 5623 5626 5632 5638 5645 5651 5657 5660 5666 5670
5481 5483 5484 5486 5489 5493 5498 5503 5513 5519 5521 5528 5536 5544 5548 5552 5557 5560 5563 5566 5570 5574 5579 5583 5586 5589 5590 5596 5599 5602 5603 5606 5610 5618 5618 5621 5623 5631 5637 5643 5648 5651 5656 5663
5466 5468 5471 5473 5476 5479 5484 5488 5497 5505 5507 5517 5525 5531 5535 5541 5545 5548 5551 5555 5559 5564 5569 5572 5577 5581 5582 5588 5592 5596 5599 5603 5605 5611 5617 5620 5620 5623 5628 5633 5638 5645 5649 5655
5453 5455 5457 5460 5463 5466 5469 5473 5486 5492 5497 5505 5513 5517 5525 5529 5534 5538 5541 5545 5549 5553 5558 5561 5565 5569 5573 5579 5587 5589 5592 5597 5600 5602 5604 5609 5616 5617 5622 5627 5632 5637 5642 5643
5439 5441 5444 5447 5449 5450 5451 5462 5473 5480 5486 5494 5500 5507 5514 5520 5525 5530 5532 5537 5539 5542 5547 5550 5554 5558 5561 5569 5576 5584 5586 5589 5593 5595 5598 5603 5606 5611 5616 5620 5624 5629 5631 5632
5427 5429 5431 5433 5435 5435 5437 5449 5459 5466 5475 5483 5490 5498 5505 5511 5515 5521 5524 5527 5531 5535 5537 5538 5542 5546 5550 5556 5565 5574 5580 5584 5587 5590 5593 5596 5600 5605 5610 5614 5617 5620 5622 5626
5415 5417 5419 5421 5422 5424 5428 5440 5449 5456 5467 5474 5482 5488 5495 5501 5506 5513 5516 5520 5525 5527 5529 5531 5533 5537 5541 5545 5555 5564 5572 5577 5579 5584 5587 5591 5597 5598 5603 5606 5610 5612 5613 5613
5404 5406 5408 5410 5413 5416 5421 5432 5441 5448 5457 5465 5474 5481 5488 5493 5498 5504 5508 5512 5517 5520 5522 5525 5528 5532 5534 5539 5545 5553 5560 5566 5572 5577 5581 5586 5587 5590 5598 5601 5603 5602 5603 5603
5394 5396 5398 5402 5405 5409 5416 5425 5435 5442 5450 5460 5467 5473 5480 5486 5491 5497 5502 5506 5511 5515 5518 5520 5524 5528 5532 5535 5538 5543 5550 5556 5563 5567 5572 5576 5581 5581 5589 5593 5597 5589 5594 5596
5386 5388 5391 5394 5399 5404 5411 5421 5428 5435 5443 5453 5461 5468 5474 5479 5485 5492 5498 5502 5507 5510 5513 5517 5520 5524 5527 5531 5533 5536 5541 5547 5554 5560 5563 5569 5572 5571 5579 5585 5587 5582 5587 5587
5379 5382 5385 5389 5394 5400 5408 5419 5424 5431 5441 5448 5455 5460 5467 5473 5481 5487 5493 5499 5502 5505 5510 5514 5517 5520 5524 5527 5530 5532 5536 5541 5546 5551 5555 5559 5562 5564 5569 5572 5573 5577 5579 5581
5374 5376 5380 5385 5390 5397 5406 5413 5421 5428 5437 5446 5450 5456 5462 5470 5477 5482 5488 5494 5498 5502 5505 5511 5514 5517 5520 5524 5527 5530 5534 5537 5542 5547 5551 5554 5557 5557 5561 5565 5568 5571 5574 5576
5370 5373 5377 5382 5387 5395 5404 5413 5420 5425 5434 5441 5446 5455 5462 5468 5474 5479 5484 5489 5494 5499 5503 5507 5510 5513 5517 5520 5524 5527 5532 5534 5538 5543 5548 5550 5551 5555 5559 5561 5564 5566 5568 5569
5368 5371 5376 5381 5387 5396 5403 5410 5417 5424 5432 5438 5448 5454 5462 5466 5470 5474 5480 5484 5488 5493 5498 5503 5506 5510 5513 5516 5519 5523 5527 5529 5533 5537 5541 5543 5545 5547 5552 5554 5557 5559 5560 5561
5367 5371 5376 5381 5388 5395 5403 5409 5416 5422 5432 5442 5447 5453 5459 5462 5465 5471 5477 5481 5486 5490 5493 5496 5502 5506 5509 5511 5515 5519 5522 5525 5529 5533 5534 5538 5538 5542 5545 5546 5549 5550 5550 5551
5367 5371 5376 5382 5389 5396 5401 5406 5414 5421 5430 5438 5444 5450 5456 5459 5463 5467 5473 5477 5482 5486 5490 5493 5497 5501 5505 5507 5511 5514 5516 5520 5523 5526 5527 5529 5531 5534 5536 5537 5538 5539 5540 5540
5368 5372 5377 5383 5389 5395 5401 5410 5420 5424 5429 5435 5442 5447 5452 5456 5461 5465 5469 5473 5478 5482 5486 5489 5493 5497 5499 5502 5506 5507 5511 5513 5516 5518 5520 5522 5524 5526 5526 5526 5526 5526 5526 5525
5369 5374 5379 5385 5391 5397 5404 5411 5418 5424 5429 5435 5440 5446 5451 5455 5459 5464 5468 5471 5474 5478 5481 5486 5489 5491 5493 5496 5500 5502 5505 5507 5509 5511 5512 5514 5516 5516 5516 5516 5515 5515 5514 5512
5369 5375 5380 5385 5392 5399 5406 5413 5419 5424 5430 5433 5438 5444 5449 5452 5458 5462 5464 5467 5470 5475 5478 5482 5484 5487 5487 5492 5496 5497 5498 5499 5501 5503 5504 5506 5507 5507 5506 5505 5504 5503 5503 5502
5369 5376 5382 5388 5394 5401 5406 5412 5418 5422 5427 5432 5438 5443 5447 5451 5454 5457 5462 5464 5467 5469 5474 5476 5478 5479 5482 5485 5489 5491 5493 5494 5496 5496 5498 5498 5497 5497 5496 5495 5494 5493 5493 5492
5372 5379 5386 5392 5399 5403 5409 5414 5418 5422 5427 5432 5436 5441 5444 5448 5452 5455 5458 5460 5462 5464 5469 5471 5472 5474 5478 5481 5483 5485 5486 5488 5489 5489 5489 5489 5488 5487 5486 5485 5483 5482 5481 5481
5378 5386 5391 5395 5401 5406 5410 5414 5418 5422 5428 5432 5435 5438 5442 5446 5449 5452 5455 5457 5459 5460 5463 5466 5466 5470 5472 5475 5478 5480 5481 5481 5482 5483 5482 5481 5480 5479 5478 5476 5474 5472 5471 5470
5384 5389 5394 5399 5403 5407 5412 5416 5420 5424 5428 5431 5434 5438 5441 5444 5448 5451 5453 5454 5456 5457 5458 5459 5462 5465 5467 5468 5471 5473 5474 5474 5475 5475 5475 5474 5473 5471 5471 5469 5466 5464 5463 5462
5388 5393 5398 5402 5406 5411 5416 5419 5422 5423 5426 5429 5433 5436 5440 5444 5446 5448 5452 5453 5454 5454 5454 5456 5458 5458 5459 5463 5465 5467 5468 5468 5468 5467 5466 5466 5465 5464 5462 5461 5458 5456 5455 5453
5395 5399 5402 5406 5410 5413 5415 5417 5419 5422 5425 5429 5432 5436 5440 5443 5445 5447 5449 5451 5450 5451 5453 5453 5453 5455 5457 5459 5460 5461 5461 5461 5460 5459 5458 5457 5456 5455 5454 5452 5450 5447 5444 5442
5400 5403 5406 5408 5410 5413 5416 5418 5421 5424 5427 5430 5434 5437 5440 5442 5444 5447 5448 5448 5449 5451 5451 5452 5452 5453 5454 5454 5455 5455 5454 5453 5452 5451 5450 5449 5448 5447 5445 5443 5440 5437 5435 5433
5404 5405 5408 5411 5413 5416 5419 5422 5424 5427 5430 5433 5436 5438 5440 5442 5443 5444 5446 5447 5447 5448 5448 5448 5449 5449 5449 5449 5449 5448 5447 5446 5445 5444 5443 5442 5440 5438 5435 5433 5431 5429 5427 5425